Location: Campillo
(40.8621°N, 4.2488°W)
Time: 11:02:46
(UTC+00:00)

Terra - Pass Details

Date: 11 May 2021
Orbit: 701 x 703 km, 98.2° (Epoch: 14 June)

Event Time Altitude Azimuth Distance (km) Brightness Sun altitude
Exits shadow 23:11:39 25° 272° (W) 1,399 3.5 -29.3°
Drops below altitude 10° 23:15:16 10° 321° (NW) 2,177 5.1 -29.5°
Sets 23:17:53 0° 334° (NNW) 3,100 6.3 -29.6°
